[[{"header":{"parameterUnit":"m.s-1","parameterCategory":1,"la1":30.2992,"la2":30.254,"lo1":-89.0895,"lo2":-89.0443,"dy":0.0025,"dx":0.0025,"nx":19,"ny":19,"refTime":"2026-05-10T21:00:00:Z","depth":0,"parameterNumber":2,"parameterNumberName":"U-component_of_WINDS"},"data":[0,0,0,-0.4167,-0.4163,-0.396,-0.3959,-0.3716,-0.3714,0,0,0,0,0,0,0,0,0,0,0,-0.424,-0.4239,-0.4167,-0.4162,-0.3961,-0.3959,-0.3716,-0.3714,0,0,0,0,0,0,0,0,0,0,0,-0.424,-0.4239,-0.4238,-0.4162,-0.3961,-0.3959,-0.3717,-0.3863,0,0,0,0,0,0,0,0,0,0,-0.4057,-0.4138,-0.4239,-0.4238,-0.4161,-0.3961,-0.3959,-0.387,-0.3854,-0.3815,0,-0.3788,0,-0.3748,-0.3699,-0.3698,0,0,0,-0.4152,-0.4151,-0.4085,-0.4237,-0.4159,-0.3961,-0.4049,-0.3861,-0.3843,-0.3795,-0.3784,-0.3775,-0.3743,-0.3698,-0.3697,-0.3516,-0.3516,0,0,-0.4163,-0.421,-0.4098,-0.4074,-0.4111,-0.4055,-0.4043,-0.385,-0.384,-0.3783,-0.3769,-0.3739,-0.3696,-0.3694,-0.3517,-0.3516,0,0,0,-0.4202,-0.4218,-0.4156,-0.4085,-0.4048,-0.405,-0.4035,-0.3849,-0.3825,-0.3766,-0.3737,-0.3695,-0.3692,-0.3517,-0.3517,-0.3545,0,0,0,-0.4208,-0.4241,-0.4162,-0.4188,-0.4052,-0.3947,-0.4039,-0.3838,-0.3815,-0.3738,-0.3695,-0.369,-0.3517,-0.3517,-0.3545,-0.355,0,0,0,-0.4248,-0.4246,-0.4221,-0.4191,-0.4106,-0.3949,-0.3913,-0.3832,-0.3798,-0.3698,-0.3689,-0.3518,-0.3517,-0.3545,-0.355,-0.3514,0,0,0,-0.4304,-0.425,-0.4223,-0.415,-0.4109,-0.397,-0.3914,-0.3807,-0.3726,-0.3694,-0.3517,-0.3517,-0.3545,-0.355,-0.3515,-0.3492,-0.3488,0,0,-0.4261,-0.4246,-0.4199,-0.4169,-0.4047,-0.3997,-0.3876,-0.3756,-0.3703,-0.358,-0.3575,-0.3545,-0.355,-0.3514,-0.3451,-0.3448,0,0,0,-0.4201,-0.4168,-0.4126,-0.4051,-0.396,-0.3879,-0.3773,-0.3727,-0.3622,-0.3651,-0.3522,-0.3524,-0.3501,-0.3488,-0.3485,-0.3461,-0.3513,-0.3513,-0.3513,-0.4207,-0.4143,-0.406,-0.3971,-0.3899,-0.3789,-0.3723,-0.3642,-0.3598,-0.3568,-0.3531,-0.3501,-0.3487,-0.3485,-0.3461,-0.3516,-0.3516,-0.3516,-0.3516,-0.4137,-0.4078,-0.402,-0.3919,-0.385,-0.3763,-0.3653,-0.3624,-0.353,-0.3524,-0.3501,-0.3499,-0.3484,-0.3459,-0.3517,-0.3517,-0.3517,-0.3517,-0.3517,-0.4132,-0.4092,-0.404,-0.3923,-0.384,-0.375,-0.3663,-0.3602,-0.3545,-0.3522,-0.3474,-0.3473,-0.3462,-0.3504,-0.3504,-0.3503,-0.3503,-0.3503,-0.3503,-0.4147,-0.4086,-0.4022,-0.3919,-0.3861,-0.3778,-0.3665,-0.3605,-0.3523,-0.3486,-0.3485,-0.3441,-0.3496,-0.351,-0.3501,-0.3502,-0.3502,-0.3502,-0.3502,-0.4096,-0.4098,-0.3998,-0.3941,-0.3812,-0.3731,-0.3656,-0.3539,-0.3481,-0.3439,-0.3399,-0.3451,-0.343,-0.3432,-0.3442,-0.3416,-0.3416,-0.3416,-0.3416,-0.4091,-0.4075,-0.3957,-0.3869,-0.3775,-0.3696,-0.358,-0.349,-0.3397,-0.3356,-0.3351,-0.336,-0.3365,-0.3341,-0.3344,-0.3353,-0.3305,-0.3305,-0.3305,-0.4054,-0.4026,-0.3941,-0.3853,-0.3747,-0.3656,-0.3544,-0.3441,-0.3335,-0.3299,-0.3321,-0.3326,-0.334,-0.335,-0.3313,-0.332,-0.3335,0,0]},{"header":{"parameterUnit":"m.s-1","parameterCategory":1,"la1":30.2992,"la2":30.254,"lo1":-89.0895,"lo2":-89.0443,"dy":0.0025,"dx":0.0025,"nx":19,"ny":19,"refTime":"2026-05-10T21:00:00:Z","depth":0,"parameterNumber":3,"parameterNumberName":"V-component_of_WINDS"},"data":[0,0,0,-5.1945,-5.1949,-5.2144,-5.2145,-5.2413,-5.2415,0,0,0,0,0,0,0,0,0,0,0,-5.19,-5.1902,-5.1945,-5.195,-5.2144,-5.2145,-5.2412,-5.2415,0,0,0,0,0,0,0,0,0,0,0,-5.1899,-5.1901,-5.1904,-5.1951,-5.2144,-5.2145,-5.2412,-5.2258,0,0,0,0,0,0,0,0,0,0,-5.2066,-5.2036,-5.1901,-5.1904,-5.1952,-5.2144,-5.2145,-5.225,-5.2267,-5.2333,0,-5.2395,0,-5.241,-5.2434,-5.2435,0,0,0,-5.194,-5.2022,-5.2063,-5.1905,-5.1954,-5.2144,-5.2054,-5.226,-5.2279,-5.2356,-5.2399,-5.2408,-5.2414,-5.2436,-5.2438,-5.2849,-5.2852,0,0,-5.193,-5.1941,-5.205,-5.2077,-5.2049,-5.2048,-5.206,-5.2271,-5.2318,-5.24,-5.2414,-5.2419,-5.2438,-5.244,-5.2847,-5.285,0,0,0,-5.1905,-5.1934,-5.197,-5.2066,-5.21,-5.2053,-5.2068,-5.2309,-5.2319,-5.2417,-5.2422,-5.244,-5.2443,-5.2844,-5.2848,-5.2977,0,0,0,-5.1898,-5.192,-5.1966,-5.1975,-5.2096,-5.2207,-5.2101,-5.2305,-5.2328,-5.242,-5.244,-5.2446,-5.2842,-5.2846,-5.2968,-5.3037,0,0,0,-5.1883,-5.1918,-5.195,-5.1975,-5.2059,-5.2203,-5.2226,-5.231,-5.2332,-5.2436,-5.2447,-5.284,-5.2846,-5.296,-5.3023,-5.3149,0,0,0,-5.187,-5.2062,-5.1953,-5.2169,-5.2058,-5.2282,-5.2224,-5.239,-5.2495,-5.2441,-5.2842,-5.2848,-5.2957,-5.3015,-5.3141,-5.3258,-5.3308,0,0,-5.2119,-5.2093,-5.2219,-5.2127,-5.2374,-5.2251,-5.2517,-5.26,-5.2599,-5.2766,-5.2776,-5.2971,-5.3022,-5.3147,-5.3581,-5.3621,0,0,0,-5.2302,-5.2393,-5.2456,-5.2556,-5.2625,-5.269,-5.2732,-5.2763,-5.2904,-5.2687,-5.305,-5.308,-5.3153,-5.3208,-5.3242,-5.3304,-5.2874,-5.2873,-5.2873,-5.2673,-5.2661,-5.287,-5.2882,-5.2979,-5.3021,-5.3099,-5.3147,-5.3106,-5.3192,-5.3242,-5.3507,-5.3573,-5.3598,-5.3663,-5.3302,-5.3303,-5.3303,-5.3303,-5.3038,-5.3166,-5.3107,-5.3288,-5.3274,-5.3426,-5.3473,-5.3439,-5.3578,-5.3468,-5.3532,-5.3414,-5.3642,-5.3698,-5.3313,-5.3311,-5.331,-5.3309,-5.3309,-5.3281,-5.334,-5.3374,-5.3518,-5.363,-5.3634,-5.3771,-5.3752,-5.3736,-5.3799,-5.385,-5.3848,-5.3844,-5.3824,-5.3825,-5.3826,-5.3827,-5.3827,-5.3828,-5.3519,-5.3554,-5.3672,-5.3761,-5.3823,-5.3902,-5.3945,-5.4005,-5.4067,-5.4043,-5.4043,-5.3994,-5.3666,-5.3584,-5.3842,-5.384,-5.3838,-5.3837,-5.3836,-5.3897,-5.3808,-5.3991,-5.4053,-5.4156,-5.4268,-5.4242,-5.4366,-5.4413,-5.4481,-5.4418,-5.4178,-5.4149,-5.4122,-5.4055,-5.4419,-5.4419,-5.4419,-5.4419,-5.4103,-5.4086,-5.4268,-5.4369,-5.4465,-5.446,-5.4666,-5.47,-5.4722,-5.475,-5.4694,-5.4603,-5.4576,-5.4563,-5.4527,-5.4464,-5.4924,-5.4924,-5.4925,-5.4335,-5.4326,-5.4506,-5.4526,-5.4605,-5.4673,-5.4866,-5.4983,-5.4989,-5.4945,-5.4772,-5.475,-5.4602,-5.4555,-5.4509,-5.4452,-5.4336,0,0]}]]